Starlink 31559

operational
NORAD ID: 59358 Int'l Des: 2024-060 Owner: SPXS Country: US Constellation: starlink
LEOCIRCULAR

Starlink 31559について

説明を読み込み中...

リアルタイム位置

3D地球を読み込み中...

次回通過

高度履歴

Altitude vs Time

uPlot chart will show altitude changes over time

軌道要素

1 59358U 24060L 26036.51475311 .00001606 00000-0 67861-4 0 9991
2 59358 43.0029 81.4290 0000860 215.0713 145.0082 15.27582088105144
Epoch: Feb 5, 2026 • Age: 9 hours

現在のステータス

高度 495.4 km
速度 7.62 km/s
衛星直下点 -41.23°S, 87.55°W
打ち上げ日 Mar 31, 2024
運用期間 1.8 years
タイプ internet

技術仕様

分類 Payload
質量 730.00 kg
乾燥質量 700.00 kg
総質量 730.00 kg
長さ 0.30 m
直径 4.10 m
スパン 29.00 m
形状 Box + pan
製造者 SPXS
バスタイプ Starlink V2M
フェーズステータス In Orbit
所有者/国 SPXS/US

大規模コンステレーション

Loading constellations...